Simultaneous Nadir Overpasses (SNOs) Predictions

Prediction of SNOs between GOES-16 and AQUA Satellite Orbit:

Table of predicted SNOs for the next 14.0 days since TLE Epoch: 4/30/2022
Index Date Time (GOES-16) GOES-16 Lat,Lon AQUA Lat,Lon Distance(km) Time Diff (sec)
1 05/01/2022 06:39:33 -0.03, -75.19 -0.02, -75.11 8.40 80
2 05/03/2022 06:24:27 -0.03, -75.19 -0.68, -72.09 351.86 80
3 05/03/2022 18:48:26 0.03, -75.19 -0.44, -77.26 235.85 80
4 05/05/2022 18:33:21 0.03, -75.20 0.25, -74.24 109.00 80
5 05/06/2022 06:57:11 -0.02, -75.20 0.86, -79.38 475.03 80
6 05/07/2022 18:20:53 0.02, -75.21 0.86, -71.21 454.48 80
7 05/08/2022 06:44:44 -0.02, -75.21 0.20, -76.35 129.43 80
8 05/10/2022 06:29:36 -0.02, -75.22 -0.44, -73.32 217.10 80
9 05/10/2022 18:53:35 0.01, -75.23 -0.71, -78.48 370.11 80
10 05/12/2022 18:41:07 0.01, -75.25 -0.04, -75.45 22.59 80
